TimeMST,TemperatureF,Dew PointF,Humidity,Sea Level PressureIn,VisibilityMPH,Wind Direction,Wind SpeedMPH,Gust SpeedMPH,PrecipitationIn,Events,Conditions,WindDirDegrees,DateUTC
12:15 AM,28.4,28.4,100,30.26,10.0,West,6.9,-,N/A,,Overcast,260,2013-01-09 07:15:00
12:35 AM,30.2,28.4,93,30.26,10.0,Calm,Calm,-,N/A,,Overcast,0,2013-01-09 07:35:00
12:55 AM,30.2,28.4,93,30.26,10.0,SSW,3.5,-,N/A,,Overcast,200,2013-01-09 07:55:00
1:15 AM,30.2,28.4,93,30.26,10.0,WNW,3.5,-,N/A,,Overcast,290,2013-01-09 08:15:00
1:35 AM,28.4,28.4,100,30.27,10.0,Calm,Calm,-,N/A,,Overcast,0,2013-01-09 08:35:00
1:55 AM,28.4,28.4,100,30.27,10.0,West,6.9,-,N/A,,Overcast,260,2013-01-09 08:55:00
2:36 AM,30.2,28.4,93,30.28,10.0,SW,6.9,-,N/A,,Overcast,230,2013-01-09 09:36:00
2:55 AM,30.2,28.4,93,30.28,10.0,WSW,5.8,-,N/A,,Overcast,240,2013-01-09 09:55:00
3:15 AM,30.2,28.4,93,30.28,10.0,WSW,3.5,-,N/A,,Overcast,240,2013-01-09 10:15:00
3:35 AM,30.2,28.4,93,30.28,10.0,WSW,5.8,-,N/A,,Overcast,240,2013-01-09 10:35:00
3:55 AM,30.2,28.4,93,30.28,10.0,WSW,5.8,-,N/A,,Overcast,250,2013-01-09 10:55:00
4:15 AM,30.2,28.4,93,30.27,10.0,West,8.1,-,N/A,,Overcast,260,2013-01-09 11:15:00
4:36 AM,30.2,28.4,93,30.26,10.0,SW,8.1,-,N/A,,Overcast,230,2013-01-09 11:36:00
4:55 AM,30.2,28.4,93,30.27,10.0,SSW,10.4,-,N/A,,Overcast,210,2013-01-09 11:55:00
5:35 AM,30.2,28.4,93,30.26,10.0,WSW,4.6,-,N/A,,Overcast,240,2013-01-09 12:35:00
5:55 AM,30.2,28.4,93,30.25,10.0,WSW,9.2,-,N/A,,Overcast,240,2013-01-09 12:55:00
6:15 AM,30.2,28.4,93,30.24,10.0,SW,6.9,-,N/A,,Overcast,230,2013-01-09 13:15:00
6:35 AM,30.2,28.4,93,30.24,10.0,SW,8.1,-,N/A,,Overcast,230,2013-01-09 13:35:00
6:55 AM,30.2,28.4,93,30.24,10.0,SSW,6.9,-,N/A,,Overcast,210,2013-01-09 13:55:00
8:52 AM,30.2,26.6,86,30.22,10.0,SSW,12.7,-,N/A,,Partly Cloudy,200,2013-01-09 15:52:00
9:51 AM,30.2,24.8,80,30.20,10.0,SSW,13.8,-,N/A,,Clear,200,2013-01-09 16:51:00
10:52 AM,32.0,24.8,75,30.17,10.0,South,9.2,-,N/A,,Clear,180,2013-01-09 17:52:00
11:53 AM,33.8,24.8,70,30.13,10.0,South,12.7,-,N/A,,Clear,180,2013-01-09 18:53:00
12:54 PM,35.6,23.0,60,30.08,10.0,SSW,9.2,-,N/A,,Clear,200,2013-01-09 19:54:00
1:51 PM,37.4,23.0,56,30.04,10.0,South,15.0,-,N/A,,Clear,190,2013-01-09 20:51:00
2:51 PM,37.4,23.0,56,30.02,10.0,South,19.6,23.0,N/A,,Clear,190,2013-01-09 21:51:00
3:51 PM,35.6,23.0,60,30.01,10.0,SSW,18.4,-,N/A,,Scattered Clouds,210,2013-01-09 22:51:00
4:53 PM,33.8,23.0,65,29.98,10.0,SW,18.4,24.2,N/A,,Mostly Cloudy,220,2013-01-09 23:53:00
5:55 PM,33.8,23.0,65,29.97,10.0,SSW,11.5,-,N/A,,Mostly Cloudy,210,2013-01-10 00:55:00
6:52 PM,33.8,23.0,65,29.95,10.0,SW,9.2,-,N/A,,Mostly Cloudy,220,2013-01-10 01:52:00
7:51 PM,32.0,24.8,75,29.93,10.0,South,5.8,-,N/A,,Mostly Cloudy,180,2013-01-10 02:51:00
8:52 PM,30.2,24.8,80,29.89,10.0,SSW,6.9,-,N/A,,Mostly Cloudy,200,2013-01-10 03:52:00
9:15 PM,30.2,24.8,80,29.88,10.0,South,11.5,-,N/A,,Mostly Cloudy,190,2013-01-10 04:15:00
9:35 PM,32.0,23.0,69,29.88,10.0,SSW,10.4,-,N/A,,Mostly Cloudy,200,2013-01-10 04:35:00
9:55 PM,32.0,24.8,75,29.87,10.0,SSW,9.2,-,N/A,,Overcast,200,2013-01-10 04:55:00
10:15 PM,32.0,23.0,69,29.86,10.0,SSW,8.1,-,N/A,,Overcast,200,2013-01-10 05:15:00
10:35 PM,32.0,24.8,75,29.86,10.0,SSW,10.4,-,N/A,,Overcast,200,2013-01-10 05:35:00
10:55 PM,32.0,24.8,75,29.86,10.0,SSW,11.5,-,N/A,,Overcast,200,2013-01-10 05:55:00
11:15 PM,32.0,21.2,64,29.84,10.0,SSW,9.2,-,N/A,,Overcast,200,2013-01-10 06:15:00
11:35 PM,30.2,24.8,80,29.81,10.0,ENE,6.9,-,N/A,,Overcast,70,2013-01-10 06:35:00
11:55 PM,30.2,23.0,75,29.82,10.0,SSW,3.5,-,N/A,,Overcast,210,2013-01-10 06:55:00